Hourly Data Report for August 17, 2009

All times are specified in Local Standard Time (LST). Add 1 hour to adjust for Daylight Saving Time where and when it is observed.

EMERSON AUT
MANITOBA

49°00'00.000" N
97°14'15.000" W
242.00 m
5020882
71560
WEX

Download Data

Hourly Data (August 2009)
Hourly Data Report for August 17, 2009
Temp Definition
°C
Dew Point Temp Definition
°C
Rel Hum Definition
%
Wind Dir Definition
10's deg

Wind Spd Definition
km/h
Visibility Definition
km
Stn Press Definition
kPa
Hmdx Definition


Wind Chill Definition


Weather Definition


TIME
00:00 12.2 10.7 91 19 15   97.74     LegendNANA
01:00 12.6 10.7 88 20 17   97.75     LegendNANA
02:00 12.4 10.9 91 21 17   97.74     LegendNANA
03:00 11.1 10.2 94 18 7   97.78     LegendNANA
04:00 11.1 9.8 92 22 11   97.81     LegendNANA
05:00 11.1 9.6 90 22 19   97.82     LegendNANA
06:00 10.7 9.2 90 20 15   97.83     LegendNANA
07:00 11.8 9.7 87 22 20   97.83     LegendNANA
08:00 13.3 9.8 79 22 24   97.78     LegendNANA
09:00 13.6 10.1 79 23 24   97.78     LegendNANA
10:00 14.1 10.5 79 22 28   97.77     LegendNANA
11:00 15.2 11.0 76 23 35   97.78     LegendNANA
12:00 14.8 11.4 80 23 28   97.81     LegendNANA
13:00 14.7 11.5 81 24 22   97.85     LegendNANA
14:00 13.3 12.0 92 24 17   97.85     LegendNANA
15:00 14.8 12.1 84 23 22   97.82     LegendNANA
16:00 13.3 11.0 86 25 22   97.88     LegendNANA
17:00 14.8 12.1 84 27 20   97.89     LegendNANA
18:00 13.7 11.3 85 28 22   97.92     LegendNANA
19:00 12.6 11.4 92 31 20   97.97     LegendNANA
20:00 12.6 11.6 94 28 13   98.04     LegendNANA
21:00 12.3 10.4 88 30 19   98.11     LegendNANA
22:00 12.1 10.4 89 29 19   98.15     LegendNANA
23:00 11.9 9.9 88 30 17   98.17     LegendNANA

Notes on Data Quality.

Legend

  • E = Estimated
  • M = Missing
  • NA = Not Available
  • ‡ = Partner data that is not subject to review by the National Climate Archives
Date modified: